GW1293 Weather Reports


time (UTC)temp
C
wind
direction
speed
KPH
gust
KPH
rain 1hr
cm
rain 24hr
cm
rain mn
cm
humidity
%
barometer
mb
20260503005740 6 139 0.0 0.0 0.00 0.03 0.03 70 1020.4
20260503005238 6 140 0.0 0.0 0.00 0.03 0.03 70 1020.6
20260503004733 6 140 0.0 0.0 0.00 0.03 0.03 70 1020.7
20260503004232 6 140 0.0 0.0 0.00 0.03 0.03 68 1020.5
20260503003729 7 139 0.0 0.0 0.00 0.03 0.03 67 1020.4
20260503003226 7 140 0.0 0.0 0.00 0.03 0.03 66 1020.5
20260503002722 7 136 0.0 0.0 0.00 0.03 0.03 64 1020.6
20260503002219 7 141 0.0 0.0 0.00 0.03 0.03 64 1020.5
20260503001715 7 140 0.0 0.0 0.00 0.03 0.03 62 1020.5
20260503001212 7 136 0.0 0.0 0.00 0.03 0.03 60 1020.4
20260503000710 7 136 0.0 0.0 0.00 0.03 0.03 60 1020.4
20260503000207 7 135 0.0 0.0 0.00 0.03 0.03 59 1020.2
20260502235704 7 148 0.0 0.0 0.00 0.03 0.03 59 1020.4
20260502235202 7 102 0.0 1.6 0.00 0.03 0.03 58 1020.2
20260502234658 7 150 0.0 0.0 0.00 0.03 0.03 57 1020.4
20260502234155 7 137 3.2 4.8 0.00 0.03 0.03 57 1020.2
20260502233651 7 133 0.0 0.0 0.00 0.03 0.03 58 1020.2
20260502233148 7 152 0.0 0.0 0.00 0.03 0.03 57 1020.3
20260502232644 7 139 0.0 0.0 0.00 0.03 0.03 60 1020.2
20260502232141 7 130 1.6 1.6 0.00 0.03 0.03 57 1019.9
20260502231638 7 173 0.0 0.0 0.00 0.03 0.03 54 1020.2
20260502231136 7 199 1.6 3.2 0.00 0.03 0.03 58 1020.1
20260502230634 7 137 0.0 0.0 0.00 0.03 0.03 55 1020.1
20260502230132 7 359 6.4 8.0 0.00 0.03 0.03 55 1020.2
20260502225627 7 166 3.2 4.8 0.00 0.03 0.03 54 1020.0
20260502225125 7 116 1.6 3.2 0.00 0.03 0.03 53 1020.2
20260502224621 7 5 4.8 4.8 0.00 0.03 0.03 52 1020.1
20260502224118 8 144 0.0 0.0 0.00 0.03 0.03 54 1020.1
20260502223615 8 131 1.6 1.6 0.00 0.03 0.03 53 1020.0
20260502223114 8 163 3.2 4.8 0.00 0.03 0.03 53 1020.0
20260502222611 8 119 3.2 4.8 0.00 0.03 0.03 53 1019.8
20260502222107 8 165 1.6 1.6 0.00 0.03 0.03 52 1019.9
20260502221603 8 153 0.0 0.0 0.00 0.03 0.03 52 1019.9
20260502221100 8 261 4.8 4.8 0.00 0.03 0.03 53 1019.9
20260502220556 8 340 3.2 4.8 0.00 0.03 0.03 54 1020.0
20260502220053 8 170 3.2 3.2 0.00 0.03 0.03 55 1019.7
20260502215550 8 133 0.0 0.0 0.00 0.03 0.03 58 1019.9
20260502215047 8 102 3.2 3.2 0.00 0.03 0.03 57 1019.8
20260502214544 8 135 0.0 0.0 0.00 0.03 0.03 59 1019.7
20260502214041 8 122 1.6 3.2 0.00 0.03 0.03 57 1019.8
20260502213538 8 226 4.8 4.8 0.00 0.03 0.03 55 1019.7
20260502213036 8 135 0.0 0.0 0.00 0.03 0.03 50 1019.7
20260502212534 8 328 6.4 8.0 0.00 0.03 0.03 51 1019.6
20260502212032 8 159 1.6 1.6 0.00 0.03 0.03 47 1019.5
20260502211527 8 262 1.6 3.2 0.00 0.03 0.03 51 1019.5
20260502211024 8 148 3.2 3.2 0.00 0.03 0.03 52 1019.6
20260502210521 8 83 4.8 8.0 0.00 0.03 0.03 51 1019.6
20260502210018 8 222 3.2 3.2 0.00 0.03 0.03 54 1019.5
20260502205515 8 127 3.2 3.2 0.00 0.03 0.03 53 1019.6
20260502205012 8 163 3.2 3.2 0.00 0.03 0.03 50 1019.8
20260502204509 8 69 1.6 4.8 0.00 0.03 0.03 50 1019.6
20260502204007 8 148 1.6 1.6 0.00 0.03 0.03 52 1019.6
20260502203503 8 167 1.6 1.6 0.00 0.03 0.03 53 1019.6
20260502203000 9 272 3.2 3.2 0.00 0.03 0.03 54 1019.9
20260502202456 9 143 0.0 0.0 0.00 0.03 0.03 51 1019.5
20260502201955 8 227 3.2 4.8 0.00 0.03 0.03 53 1019.7
20260502201450 8 325 4.8 8.0 0.00 0.03 0.03 52 1019.5
20260502200947 9 318 4.8 8.0 0.00 0.03 0.03 51 1019.6
20260502200443 8 176 1.6 3.2 0.00 0.03 0.03 54 1019.7
20260502195941 9 303 1.6 3.2 0.00 0.03 0.03 55 1019.6
20260502195438 10 135 0.0 0.0 0.00 0.03 0.03 54 1019.7
20260502194934 8 138 0.0 1.6 0.00 0.03 0.03 51 1019.8
20260502194431 8 196 4.8 4.8 0.00 0.03 0.03 57 1019.8
20260502193926 8 112 3.2 4.8 0.00 0.03 0.03 55 1019.6
20260502193424 8 206 3.2 4.8 0.00 0.03 0.03 56 1019.6
20260502192919 10 27 3.2 8.0 0.00 0.03 0.03 53 1019.9
20260502192417 9 147 0.0 1.6 0.00 0.03 0.03 54 1019.8
20260502191914 10 152 1.6 3.2 0.00 0.03 0.03 54 1019.8
20260502191412 10 180 3.2 3.2 0.00 0.03 0.03 54 1020.2
20260502190909 10 325 4.8 8.0 0.00 0.03 0.03 52 1020.0
20260502190406 10 142 1.6 3.2 0.00 0.03 0.03 52 1019.8
20260502185902 10 171 1.6 1.6 0.00 0.03 0.03 54 1020.2
20260502185357 10 167 0.0 0.0 0.00 0.03 0.03 52 1020.0
20260502184855 8 351 6.4 8.0 0.00 0.03 0.03 58 1020.2
20260502184350 8 120 1.6 4.8 0.00 0.03 0.03 55 1020.2
20260502183847 9 273 4.8 8.0 0.00 0.03 0.03 57 1020.3
20260502183343 9 138 0.0 0.0 0.00 0.03 0.03 53 1020.5
20260502182838 9 292 6.4 8.0 0.00 0.03 0.03 54 1020.4
20260502182334 8 170 1.6 1.6 0.00 0.03 0.03 59 1020.3
20260502181831 9 157 6.4 8.0 0.00 0.03 0.03 53 1020.5
20260502181330 9 171 1.6 3.2 0.00 0.03 0.03 56 1020.2
20260502180827 10 108 4.8 8.0 0.00 0.03 0.03 53 1020.1
20260502180324 9 137 0.0 0.0 0.00 0.03 0.03 57 1020.5
20260502170243 9 334 4.8 4.8 0.00 0.03 0.03 51 1020.7
20260502164231 8 356 4.8 9.7 0.00 0.03 0.03 57 1020.8
20260502163726 8 200 6.4 8.0 0.00 0.03 0.03 54 1020.8
20260502163223 8 267 4.8 9.7 0.00 0.03 0.03 60 1020.6
20260502162720 8 249 3.2 4.8 0.00 0.03 0.03 55 1020.7
20260502162216 8 153 4.8 9.7 0.00 0.03 0.03 59 1020.9
20260502161713 8 103 6.4 9.7 0.00 0.03 0.03 59 1020.8
20260502161204 9 112 4.8 8.0 0.00 0.03 0.03 58 1020.8
20260502160703 8 304 8.0 9.7 0.00 0.03 0.03 56 1021.0
20260502160202 8 319 8.0 9.7 0.00 0.03 0.03 56 1021.1
20260502152115 8 38 3.2 4.8 0.00 0.03 0.03 59 1021.1
20260502151612 7 331 4.8 9.7 0.00 0.03 0.03 61 1021.0
20260502151110 7 187 4.8 8.0 0.00 0.03 0.03 63 1021.1
20260502150607 7 21 3.2 3.2 0.00 0.03 0.03 63 1020.9
20260502150103 8 95 3.2 3.2 0.00 0.03 0.03 63 1021.1
20260502130452 3 134 0.0 0.0 0.00 0.03 0.03 95 1020.8
20260502123434 1 147 0.0 0.0 0.00 0.03 0.03 99 1020.7
20260502122932 1 148 0.0 0.0 0.00 0.03 0.03 99 1020.9
20260502122427 1 65 3.2 3.2 0.00 0.03 0.03 99 1020.6
20260502121926 1 119 0.0 0.0 0.00 0.03 0.03 99 1020.3
20260502121422 1 138 0.0 0.0 0.00 0.03 0.03 99 1020.5
20260502120921 1 138 0.0 0.0 0.00 0.03 0.03 99 1020.5
20260502120416 1 132 0.0 0.0 0.00 0.03 0.03 99 1020.2
20260502115914 1 115 0.0 0.0 0.00 0.03 0.03 99 1020.3
20260502115411 1 133 0.0 0.0 0.00 0.03 0.03 99 1020.2
20260502114907 0 132 0.0 0.0 0.00 0.03 0.03 99 1020.5
20260502114404 0 139 0.0 0.0 0.00 0.03 0.03 99 1020.4
20260502113901 0 138 0.0 0.0 0.00 0.03 0.03 99 1020.6
20260502113358 0 140 0.0 0.0 0.00 0.03 0.03 99 1020.4
20260502112856 0 141 0.0 0.0 0.00 0.03 0.03 99 1020.5
20260502112354 0 142 0.0 0.0 0.00 0.03 0.03 99 1020.5
20260502111851 0 138 0.0 0.0 0.00 0.03 0.03 99 1020.3
20260502111348 0 140 0.0 0.0 0.00 0.03 0.03 99 1020.3
20260502110846 0 140 0.0 0.0 0.00 0.03 0.03 99 1020.2
20260502110344 0 139 0.0 0.0 0.00 0.03 0.03 99 1020.5
20260502105841 0 139 0.0 0.0 0.00 0.03 0.03 99 1020.2
20260502105338 0 136 0.0 0.0 0.00 0.03 0.03 99 1020.3
20260502104835 0 138 0.0 0.0 0.00 0.03 0.03 99 1019.9
20260502104333 0 139 0.0 0.0 0.00 0.03 0.03 99 1020.0
20260502103830 0 139 0.0 0.0 0.00 0.03 0.03 99 1020.1
20260502103327 0 139 0.0 0.0 0.00 0.03 0.03 99 1019.9
20260502102824 0 139 0.0 0.0 0.00 0.03 0.03 99 1020.5
20260502102321 0 139 0.0 0.0 0.00 0.03 0.03 99 1020.3
20260502101819 0 141 0.0 0.0 0.00 0.03 0.03 99 1020.2
20260502101316 0 138 0.0 0.0 0.00 0.03 0.03 99 1020.4
20260502100814 0 137 0.0 0.0 0.00 0.03 0.03 99 1020.4
20260502100313 0 138 0.0 0.0 0.00 0.03 0.03 99 1020.4
20260502091247 0 139 0.0 0.0 0.00 0.03 0.03 99 1020.4
20260502090744 0 141 0.0 0.0 0.00 0.03 0.03 99 1020.1
20260502090241 0 139 0.0 0.0 0.00 0.03 0.03 99 1020.3
20260502071142 1 139 0.0 0.0 0.00 0.00 0.00 99 1020.2
20260502070640 1 140 0.0 0.0 0.00 0.00 0.00 99 1020.0
20260502070137 1 141 0.0 0.0 0.00 0.00 0.00 99 1019.9
20260502065635 1 140 0.0 0.0 0.00 0.00 0.00 99 1020.0
20260502065133 1 140 0.0 0.0 0.00 0.00 0.00 99 1020.3
20260502064632 1 142 0.0 0.0 0.00 0.00 0.00 99 1020.2
20260502064128 1 142 0.0 0.0 0.00 0.00 0.00 99 1020.3
20260502063626 1 142 0.0 0.0 0.00 0.00 0.00 99 1020.3
20260502063124 1 140 0.0 0.0 0.00 0.00 0.00 99 1020.1
20260502062620 1 140 0.0 0.0 0.00 0.00 0.00 99 1020.2
20260502062118 2 142 0.0 0.0 0.00 0.00 0.00 99 1020.4
20260502061616 2 142 0.0 0.0 0.00 0.00 0.00 99 1019.9
20260502061114 2 139 0.0 0.0 0.00 0.00 0.00 99 1020.2
20260502060613 2 140 0.0 0.0 0.00 0.00 0.00 99 1020.3
20260502060110 2 140 0.0 0.0 0.00 0.00 0.00 99 1020.5
20260502055608 2 139 0.0 0.0 0.00 0.00 0.00 99 1020.4
20260502055106 2 139 0.0 0.0 0.00 0.00 0.00 99 1020.3
20260502054605 2 141 0.0 0.0 0.00 0.00 0.00 99 1020.5
20260502054102 2 142 0.0 0.0 0.00 0.00 0.00 99 1020.4
20260502053558 2 140 0.0 0.0 0.00 0.00 0.00 99 1020.4
20260502053056 2 141 0.0 0.0 0.00 0.00 0.00 99 1020.5
20260502052554 2 140 0.0 0.0 0.00 0.00 0.00 99 1020.4
20260502052052 2 140 0.0 0.0 0.00 0.00 0.00 99 1020.5
20260502051550 2 140 0.0 0.0 0.00 0.00 0.00 99 1020.3
20260502051048 2 140 0.0 0.0 0.00 0.00 0.00 99 1020.3
20260502050543 2 138 0.0 0.0 0.00 0.00 0.00 99 1020.2
20260502050040 2 142 0.0 0.0 0.00 0.00 0.00 99 1020.3
20260502045537 2 138 0.0 0.0 0.00 0.00 0.00 99 1020.3
20260502045035 2 136 0.0 0.0 0.00 0.00 0.00 99 1020.2
20260502044531 2 139 0.0 0.0 0.00 0.00 0.00 99 1020.3
20260502044027 3 139 0.0 0.0 0.00 0.00 0.00 99 1020.2
20260502043525 3 139 0.0 0.0 0.00 0.00 0.00 99 1020.4
20260502043021 2 139 0.0 0.0 0.00 0.00 0.00 99 1020.5
20260502042516 3 141 0.0 0.0 0.00 0.00 0.00 99 1020.4
20260502042014 3 140 0.0 0.0 0.00 0.00 0.00 99 1020.5
20260502041512 3 139 0.0 0.0 0.00 0.00 0.00 99 1020.3
20260502041008 3 139 0.0 0.0 0.00 0.00 0.00 99 1020.3
20260502040505 3 140 0.0 0.0 0.00 0.00 0.00 99 1020.3
20260502040003 3 140 0.0 0.0 0.00 0.30 0.30 99 1019.9
20260502035457 3 142 0.0 0.0 0.00 0.30 0.30 99 1020.0
20260502034955 3 137 0.0 0.0 0.00 0.30 0.30 99 1020.0
20260502034454 3 142 0.0 0.0 0.00 0.30 0.30 99 1020.1
20260502033952 3 140 0.0 0.0 0.00 0.30 0.30 99 1020.4
20260502033449 3 140 0.0 0.0 0.00 0.30 0.30 99 1020.0
20260502032946 3 141 0.0 0.0 0.00 0.30 0.30 99 1020.2
20260502032442 3 139 0.0 0.0 0.00 0.30 0.30 99 1020.4
20260502031939 3 140 0.0 0.0 0.00 0.30 0.30 99 1020.4
20260502031438 3 140 0.0 0.0 0.00 0.30 0.30 99 1019.9
20260502030936 3 141 0.0 0.0 0.00 0.30 0.30 99 1020.2
20260502030434 3 140 0.0 0.0 0.00 0.30 0.30 99 1020.4
20260502025931 4 143 0.0 0.0 0.00 0.30 0.30 99 1020.3
20260502025428 4 140 0.0 0.0 0.00 0.30 0.30 99 1020.2
20260502024926 4 141 0.0 0.0 0.00 0.30 0.30 99 1020.3
20260502024424 4 141 0.0 0.0 0.00 0.30 0.30 99 1020.4
20260502023922 4 140 0.0 0.0 0.00 0.30 0.30 99 1020.3
20260502023419 4 140 0.0 0.0 0.00 0.30 0.30 99 1020.4
20260502022916 4 140 0.0 0.0 0.00 0.30 0.30 99 1020.4
20260502022412 4 142 0.0 0.0 0.00 0.30 0.30 99 1020.1
20260502021909 4 140 0.0 0.0 0.00 0.30 0.30 99 1019.8
20260502021407 5 140 0.0 0.0 0.00 0.30 0.30 99 1019.8
20260502020904 5 140 0.0 0.0 0.00 0.30 0.30 99 1019.9
20260502020402 5 143 0.0 0.0 0.00 0.30 0.30 98 1019.6
20260502015858 5 141 0.0 0.0 0.00 0.30 0.30 97 1019.7
20260502015355 5 139 0.0 0.0 0.00 0.30 0.30 97 1019.5
20260502014853 5 139 0.0 0.0 0.00 0.30 0.30 96 1019.5
20260502014349 5 141 0.0 0.0 0.00 0.30 0.30 96 1019.6
20260502013845 5 140 0.0 0.0 0.00 0.30 0.30 95 1019.2
20260502013341 6 136 0.0 0.0 0.00 0.30 0.30 94 1019.2
20260502012838 6 141 0.0 0.0 0.00 0.30 0.30 93 1019.2
20260502012336 6 141 0.0 0.0 0.00 0.30 0.30 93 1019.0
20260502011833 6 140 0.0 0.0 0.00 0.30 0.30 92 1018.7
20260502011329 6 133 1.6 1.6 0.18 0.30 0.30 90 1018.8
20260502010827 6 101 3.2 4.8 0.18 0.30 0.30 88 1019.1
20260502010323 7 83 4.8 4.8 0.00 0.28 0.28 85 1019.1